Flag for Mozambique Weather past 2 weeks in Nampula, Mozambique

Now
63 °F

Passing clouds.


Feels Like: 63 °F
Forecast: 60 / 77 °F
Wind: 9 mph from Southwest

Location: Nampula Airport

Current Time: Jul 4, 2015 at 4:01:41 AM

Latest Report: Jul 4, 2015 at 2:00 AM


Visibility: N/A

Pressure: 30.21 "Hg

Humidity: 83%

Dew point: 57 °F

Location of NampulaLocation

Historic Weather in Nampula — Graph

°F

Nampula temperature yesterday

Maximum temperature yesterday: 72 °F (at 11:00 AM)
Minimum temperature yesterday: 61 °F (at 4:00 AM)
Average temperature yesterday: 66 °F

Past Weeks' High & Low Weather Summary

 TemperatureHumidityPressure
High90 °F (Jun 19, 10:00 AM)100% (Jun 19, 6:00 AM)30.36 "Hg (Jun 19, 6:00 AM)
Low61 °F (Jul 3, 4:00 AM)36% (Jun 19, 10:00 AM)30.09 "Hg (Jun 19, 5:00 AM)
Average70 °F76%30.18 "Hg
* Reported Jun 19 5:00 AM — Jul 4 2:00 AM, Nampula, Weather by CustomWeather, © 2015

Note: Actual official high and low records may vary slightly from our data, if they occured in-between our weather recording intervals... More about our weather records

Advertising

Nampula weather history for previous 24 hours

 ConditionsComfort  
Time TempWeatherWind HumidityBarometerVisibility
2:00 AM
Sat, Jul 4
63 °FPassing clouds.9 mph83%30.21 "HgN/A
11:00 PM
Fri, Jul 3
64 °FPartly cloudy.5 mph83%30.21 "HgN/A
9:00 PM64 °FPartly cloudy.10 mph83%30.21 "HgN/A
8:00 PM64 °FPartly cloudy.7 mph83%30.21 "HgN/A
7:00 PM63 °FPartly cloudy.8 mph94%30.21 "HgN/A
6:00 PM64 °FPartly cloudy.10 mph88%30.21 "HgN/A
5:00 PM64 °FBroken clouds.16 mph100%30.18 "HgN/A
4:00 PM68 °FBroken clouds.14 mph88%30.18 "HgN/A
2:00 PM70 °FPartly sunny.14 mph83%30.18 "HgN/A
1:00 PM70 °FPartly sunny.15 mph83%30.18 "HgN/A
12:00 PM72 °FBroken clouds.8 mph69%30.21 "HgN/A
11:00 AM72 °FBroken clouds.12 mph78%30.24 "HgN/A
10:00 AM68 °FPartly sunny.10 mph83%30.24 "HgN/A
9:00 AM66 °FBroken clouds.9 mph88%30.24 "HgN/A
8:00 AM64 °FBroken clouds.8 mph94%30.24 "HgN/A
7:00 AM63 °FBroken clouds.9 mph94%30.21 "HgN/A
5:00 AM63 °FPartly cloudy.10 mph94%30.18 "Hg5 mi
4:00 AM61 °FPassing clouds.10 mph88%30.21 "HgN/A
Weather by CustomWeather, © 2015

See weather overviewHow to use our weather pages